217  
ASUS45 KBOI 100510  
RWRID  
 
IDAHO REGIONAL WEATHER ROUNDUP  
NATIONAL WEATHER SERVICE BOISE ID  
1100 PM MDT TUE AUG 09 2022  
 
NOTE: "FAIR" INDICATES FEW OR NO CLOUDS BELOW 12000 FEET  
WITH NO SIGNIFICANT WEATHER AND/OR S TO VISIBILITY
 
 
IDZ012-014-100600-  
SOUTHWEST IDAHO  
 
 
CITY SKY/WX TMP DP RH WIND PRES REMARKS
 
BOISE MOCLDY 80 57 45 W9 30.00R  
CALDWELL MOCLDY 80 61 52 SW16 30.01R  

 
 
IDZ016-017-100600-  
SOUTHCENTRAL IDAHO  
 
 
CITY SKY/WX TMP DP RH WIND PRES REMARKS
 
BURLEY MOCLDY 76 53 44 W8 30.04R  
JEROME MOCLDY 77 51 40 S5 30.05R  
TWIN FALLS MOCLDY 76 49 38 SW10 30.07R  

 
 
IDZ019>023-100600-  
SOUTHEAST IDAHO  
 
 
CITY SKY/WX TMP DP RH WIND PRES REMARKS
 
IDAHO FALLS CLEAR 67 52 58 N5 30.12S  
POCATELLO CLEAR 73 38 27 E7 30.08S  
REXBURG CLEAR 68 48 48 NE6 30.13R  

 
 
IDZ006-010-011-018-031-032-100600-  
CENTRAL IDAHO MOUNTAINS  
 
 
CITY SKY/WX TMP DP RH WIND PRES REMARKS
 
MCCALL CLOUDY 76 47 35 N8 30.12F  
HAILEY CLEAR 68 43 40 W9 30.18R  
STANLEY N/A 71 42 35 W3 30.26R  
SALMON PTCLDY 72 46 39 VRB5 30.04R  
CHALLIS PTCLDY 74 42 31 CALM 30.12R  

 
 
IDZ002-004-006-007-026-100600-  
NORTHERN IDAHO  
 
 
CITY SKY/WX TMP DP RH WIND PRES REMARKS
 
LEWISTON CLOUDY 84 53 34 SE6 29.94R  
LOWELL N/A 73 63 70 CALM 29.94R  
COEUR D'ALENE MOCLDY 78 54 43 SW8 29.98S  
MULLAN PASS MOCLDY 73 31 21 CALM 30.23S  

 
 
 
CLICK HERE TO GO TO PREVIOUS BULLETINS.

The Nexlab ID Page Main Text Page